Tracking 19559 objects as of 26-Mar-2019
HD Live streaming from Space Station
objects crossing your sky now

DSN-2

Track DSN-2 now!


NORAD ID: 41940
Int'l Code: 2017-005A
Perigee: 35,790.0 km
Apogee: 35,798.5 km
Inclination: 0.0 °
Period: 1,436.1 minutes
Semi major axis: 42165 km
RCS: Unknown
Launch date: January 24, 2017
Source: Japan (JPN)
Launch site: TANEGASHIMA SPACE CENTER (TNSTA)
aabbcc
Your satellite tracking list
Your tracking list is empty




NASA's NSSDC Master Catalog

Two Line Element Set (TLE):
1 41940U 17005A   18347.26164206 0.00000000  00000-0  00000-0 0    04
2 41940   0.0310 268.9738 0001000  97.7547 262.2762  1.00270000    04
Source of the keplerian elements: McCants